sat.trackr.live / text

‹ back to catalog

STARLINK-35788

NORAD 66831 · 2025-280L

PAYLOAD ACTIVE UNKNOWN

§ Identity

Operator
Country
US
Launch date
2025-12-02
Launch site
AFWTR
Launch vehicle
Mass (kg)
RCS (m²)

Purposes: comms

External: N2YO · Heavens-Above · Gunter

§ Orbital elements

Epoch: 2026-09-20T06:10:14.495808Z

Period
96.10 min
Inclination
69.9998°
Eccentricity
0.0003402
Mean motion
14.98367874 rev/d
Perigee alt
569.6 km
Apogee alt
574.3 km
Semi-major
6,950.1 km
B*
4.0114e-4
RAAN
203.7434°
Arg perigee
284.0300°
Mean anomaly
76.0480°
Rev number
4,522

§ Raw data

STARLINK-357881 66831U 25280L   26263.25711222  .00004701  00000+0  40114-3 0  99962 66831  69.9998 203.7434 0003402 284.0300  76.0480 14.98367874 45220

JSON: /api/v1/satellites/66831 · /tle

For live sub-satellite position, see the globe view (requires WebGL).

§ Visibility from observer

Set your observer location to see the next 7 days of passes ≥ 10°. The values pass through the URL so the page stays shareable.

No JS? Fill the form by hand. The geolocation button needs JavaScript.